{"data":{"norad_id":69704,"intl_designator":"2026-147A","name":"STARLINK-38055","alt_names":[],"object_type":"PAYLOAD","status":"ACTIVE","operator":null,"country":"US","launch_date":"2026-06-28","launch_site_code":"AFWTR","launch_vehicle":null,"mission":null,"orbit_class":"UNKNOWN","rcs_meters":null,"size_class":null,"mass_kg":null,"dimensions":null,"purposes":["comms"],"wikipedia_slug":null,"has_3d_model":false,"image_url":null,"decayed_at":null,"tle_current":{"epoch":"2026-09-19T16:26:57.587136Z","epoch_age_seconds":92058,"freshness":"FRESH","line1":"1 69704U 26147A   26262.68538874  .00009919  00000+0  30914-3 0  9990","line2":"2 69704  97.2847 298.9768 0000977 118.9463 241.1878 15.33448875 14104","mean_motion":15.33448875,"eccentricity":9.77e-5,"inclination_deg":97.2847,"raan_deg":298.9768,"arg_perigee_deg":118.9463,"mean_anomaly_deg":241.1878,"bstar":0.00030914,"rev_number":1410,"period_min":93.905967357405,"perigee_km":464.86301880207,"apogee_km":466.20027165534,"semimajor_km":6843.6686452287,"source":"CELESTRAK","updated_at":"2026-09-20T09:00:44.257169Z"}}}